Regional Weather Roundup
Issued by NWS Northern Indiana

Home | Current Version | Previous Version | Text Only | Print | Product List | Glossary Off
Versions: 1 2 3 4 5 6 7 8 9 10 11 12 13 14 15 16 17 18 19 20 21 22 23 24 25 26 27 28 29 30 31 32 33 34 35 36 37 38 39 40 41 42 43 44 45 46 47 48 49 50

000
ASUS43 KIWX 261400
RWRIWX

KIWX WEATHER ROUNDUP
NATIONAL WEATHER SERVICE NORTHERN INDIANA
1000 AM EDT SUN APR 26 2015

NOTE: "FAIR" INDICATES FEW OR NO CLOUDS BELOW 12,000 FEET WITH NO
SIGNIFICANT WEATHER AND/OR OBSTRUCTIONS TO VISIBILITY.

* THESE STATIONS ARE NOT UNDER NWS QUALITY CONTROL. THEY ALSO MAY NOT
  REPORT WEATHER SUCH AS PRECIPITATION OR FOG.

INZ001>027-261500-
NORTHERN INDIANA

CITY           SKY/WX    TMP DP  RH WIND       PRES   REMARKS
SOUTH BEND     SUNNY     48  29  47 NE9       29.97R
GOSHEN         SUNNY     45  31  58 NE10      29.95R
ANGOLA*        SUNNY     45  28  53 N10       29.92R
FORT WAYNE     MOSUNNY   46  32  58 NE15      29.92R
PERU/GRISSOM   SUNNY     45  33  64 N12       29.92R

$$
INZ028>050-261500-
CENTRAL INDIANA

CITY           SKY/WX    TMP DP  RH WIND       PRES   REMARKS
LAFAYETTE      SUNNY     45  31  58 NE8       29.94R
KOKOMO*        SUNNY     45 N/A N/A NE12      29.93R
MUNCIE*        SUNNY     44  34  67 NE9       29.89R
INDIANAPOLIS   MOSUNNY   47  31  53 N9        29.87R

$$
MIZ043>046-050>051-056>058-064>065-071>073-077>080-261500-
SOUTHWEST LOWER MICHIGAN

CITY           SKY/WX    TMP DP  RH WIND       PRES   REMARKS
BATTLE CREEK   SUNNY     47  27  45 NE12      29.95R
BENTON HARBOR  SUNNY     45  33  63 NW8       29.98R
COLDWATER*     SUNNY     45  29  53 N9        29.94R
HILLSDALE*     SUNNY     46  28  49 NE8       29.91R
HOLLAND        SUNNY     50  27  40 N9        29.98S
GRAND RAPIDS   SUNNY     48  26  42 NE8       29.96S
KALAMAZOO      SUNNY     48  27  44 N9        29.95S
STURGIS*       SUNNY     45  28  53 CALM      29.94R
THREE RIVERS*  FAIR      46  30  53 N8        29.95S

$$
OHZ001>008-015>018-024>025-261500-
NORTHWEST OHIO

CITY           SKY/WX    TMP DP  RH WIND       PRES   REMARKS
DEFIANCE       SUNNY     48  30  49 NE14      29.91R
FINDLAY        SUNNY     48  34  58 NE15      29.87R
TOLEDO EXPRESS SUNNY     48  28  46 NE9       29.89S
TOLEDO METCALF SUNNY     46  30  53 NE9       29.90S
LIMA           SUNNY     44  35  70 N12       29.87R

$$
AND FOR LAKE MICHIGAN COASTAL AND OPEN LAKE BUOY OBSERVATIONS

STATION/POSITION TEMP    WIND        PRES    VSBY  WAVE
                 AIR SEA DIR/SP/G                  HT/PER
                 (F)     (DEG/KT/KT) (MB)    (MI)  (FT/S)
CALUMET HARBOR    42      10/  9/ 13   N/A
MICHIGAN CITY     42      30/ 14/ 16   N/A
BURNS HARBOR      41      30/ 11/ 13 1015.9S
SAINT JOSEPH      43     350/  9/ 11 1015.9R
MICHIGAN CITY     40 45   20/ 10/ 14   N/A           3/ 6

$$
&&


USA.gov is the U.S. government's official web portal to all federal, state and local government web resources and services.